GW0053 Weather Reports


time (UTC)temp
C
wind
direction
speed
KPH
gust
KPH
rain 1hr
cm
rain 24hr
cm
rain mn
cm
humidity
%
barometer
mb
20260506160041 13 119 4.8 19.3 0.00 0.03 0.03 86 1008.5
20260506154541 14 184 4.8 22.5 0.00 0.03 0.03 84 1008.4
20260506153035 14 193 6.4 16.1 0.00 0.03 0.03 82 1008.1
20260506151539 15 142 3.2 27.4 0.00 0.03 0.03 81 1008.2
20260506150043 15 161 4.8 14.5 0.00 0.03 0.03 80 1008.8
20260506144550 15 176 4.8 11.3 0.00 0.03 0.03 81 1009.1
20260506143036 15 235 3.2 8.0 0.00 0.03 0.03 81 1009.3
20260506141538 14 173 1.6 9.7 0.00 0.03 0.03 83 1009.0
20260506140036 13 148 3.2 14.5 0.00 0.03 0.03 83 1009.1
20260506134536 13 142 4.8 12.9 0.00 0.03 0.03 84 1009.0
20260506133037 13 121 1.6 9.7 0.00 0.03 0.03 85 1009.2
20260506131537 13 101 1.6 11.3 0.00 0.03 0.03 85 1009.1
20260506130036 12 113 6.4 14.5 0.00 0.03 0.03 86 1009.3
20260506124536 12 132 4.8 12.9 0.00 0.03 0.03 88 1009.3
20260506123042 11 119 6.4 11.3 0.00 0.03 0.03 91 1009.4
20260506121539 10 98 8.0 14.5 0.00 0.03 0.03 92 1009.5
20260506120042 10 70 6.4 11.3 0.03 0.03 0.03 92 1009.8
20260506114536 10 79 4.8 12.9 0.03 0.03 0.03 92 1009.6
20260506113036 10 99 6.4 14.5 0.03 0.03 0.03 93 1009.8
20260506111535 9 76 4.8 11.3 0.03 0.03 0.03 93 1010.0
20260506110039 9 74 6.4 12.9 0.00 0.00 0.00 93 1010.1
20260506104539 9 98 6.4 11.3 0.00 0.00 0.00 93 1009.6
20260506103047 9 96 3.2 11.3 0.00 0.00 0.00 93 1009.6
20260506101536 9 86 6.4 11.3 0.00 0.00 0.00 93 1008.9
20260506100042 9 97 4.8 11.3 0.00 0.00 0.00 93 1008.8
20260506094540 9 94 3.2 6.4 0.00 0.00 0.00 92 1009.1
20260506093036 9 97 0.0 4.8 0.00 0.00 0.00 91 1009.3
20260506091536 9 0 0.0 3.2 0.00 0.00 0.00 91 1009.4
20260506090045 10 195 1.6 3.2 0.00 0.00 0.00 91 1009.2
20260506084543 10 0 0.0 4.8 0.00 0.00 0.00 91 1009.0
20260506083041 9 130 1.6 4.8 0.00 0.00 0.00 90 1008.6
20260506081541 9 0 0.0 4.8 0.00 0.00 0.00 91 1008.7
20260506073038 10 0 0.0 3.2 0.00 0.00 0.00 90 1008.4
20260506071542 10 0 0.0 6.4 0.00 0.00 0.00 91 1008.1
20260506061548 10 139 1.6 14.5 0.00 0.00 0.00 89 1007.5
20260506044545 11 98 4.8 16.1 0.00 0.00 0.00 87 1007.1
20260506043040 11 109 6.4 16.1 0.00 0.00 0.00 86 1007.1
20260506041538 11 101 8.0 14.5 0.00 0.00 0.00 86 1007.3
20260506040039 11 95 6.4 11.3 0.00 0.00 0.00 86 1007.5
20260506034541 11 113 1.6 9.7 0.00 0.00 0.00 87 1007.6
20260506033044 11 0 1.6 6.4 0.00 0.00 0.00 87 1007.7
20260506031545 11 0 1.6 8.0 0.00 0.00 0.00 87 1007.7
20260506030035 11 188 3.2 6.4 0.00 0.00 0.00 86 1008.0
20260506024543 11 148 1.6 9.7 0.00 0.00 0.00 88 1007.4
20260506023041 11 103 4.8 17.7 0.00 0.00 0.00 88 1006.7
20260506021556 11 130 8.0 16.1 0.00 0.00 0.00 87 1006.5
20260506020036 12 96 8.0 14.5 0.00 0.00 0.00 82 1006.3
20260506014536 12 105 4.8 12.9 0.00 0.00 0.00 83 1006.6
20260506013035 12 101 3.2 9.7 0.00 0.00 0.00 83 1006.6
20260506011545 13 0 1.6 6.4 0.00 0.00 0.00 77 1007.3
20260506010037 13 183 1.6 6.4 0.00 0.00 0.00 75 1007.4
20260506004536 13 142 1.6 6.4 0.00 0.00 0.00 74 1007.1
20260506003036 14 195 1.6 8.0 0.00 0.00 0.00 72 1006.8
20260506001544 15 197 6.4 12.9 0.00 0.00 0.00 70 1006.7
20260506000042 15 206 8.0 22.5 0.00 0.00 0.00 70 1006.5
20260505234536 15 213 11.3 30.6 0.00 0.00 0.00 68 1006.3
20260505233037 16 259 19.3 37.0 0.00 0.00 0.00 65 1006.3
20260505231542 16 202 16.1 29.0 0.00 0.00 0.00 64 1004.3
20260505230040 17 223 14.5 32.2 0.00 0.00 0.00 63 1004.2
20260505224536 17 205 19.3 35.4 0.00 0.00 0.00 61 1003.8
20260505223037 17 182 14.5 33.8 0.00 0.00 0.00 61 1003.6
20260505221538 17 195 16.1 30.6 0.00 0.00 0.00 61 1003.3
20260505220038 17 171 16.1 38.6 0.00 0.00 0.00 61 1003.3
20260505214602 18 182 12.9 35.4 0.00 0.00 0.00 60 1003.4
20260505213039 19 190 19.3 40.2 0.00 0.00 0.00 59 1003.5
20260505211558 20 177 16.1 37.0 0.00 0.00 0.00 58 1003.5
20260505210045 20 180 17.7 41.8 0.00 0.00 0.00 58 1003.3
20260505204536 20 186 17.7 32.2 0.00 0.00 0.00 56 1003.2
20260505203039 21 168 12.9 41.8 0.00 0.00 0.00 55 1003.2
20260505201538 21 216 9.7 40.2 0.00 0.00 0.00 55 1003.4
20260505200044 22 182 11.3 29.0 0.00 0.00 0.00 52 1003.4
20260505194536 21 217 16.1 41.8 0.00 0.00 0.00 53 1003.6
20260505193038 22 184 17.7 38.6 0.00 0.00 0.00 51 1003.3
20260505191546 22 202 17.7 37.0 0.00 0.00 0.00 52 1003.4
20260505190040 22 196 22.5 38.6 0.00 0.00 0.00 50 1003.5
20260505184536 22 189 16.1 37.0 0.00 0.00 0.00 51 1003.3
20260505183050 23 172 16.1 32.2 0.00 0.00 0.00 51 1003.6
20260505181535 22 178 16.1 29.0 0.00 0.00 0.00 50 1004.0
20260505180048 22 211 16.1 38.6 0.00 0.00 0.00 51 1004.2
20260505174545 23 189 14.5 32.2 0.00 0.00 0.00 49 1004.5
20260505173037 23 208 11.3 24.1 0.00 0.00 0.00 49 1004.6
20260505171536 23 182 14.5 30.6 0.00 0.00 0.00 49 1004.7
20260505170036 23 192 14.5 37.0 0.00 0.00 0.00 50 1004.7
20260505164536 22 172 14.5 33.8 0.00 0.03 0.00 51 1005.1
20260505163037 22 207 19.3 38.6 0.00 0.03 0.00 49 1005.2
20260505161537 21 209 22.5 49.9 0.00 0.03 0.00 50 1005.5